QPF
0.00 0.00 0.00 0.00 0.01 0.01 0.02 0.01 0.01 0.02 0.02 0.01 0.01 0.01 0.01 0.01 0.01 0.04 0.05 0.08 0.09 0.09 0.10 0.11 0.07 0.07 0.07 0.09 0.07 0.07 0.05 0.04 0.03 0.03 0.04 0.06 0.12 0.15 0.14 0.10 0.09 0.16 0.19 0.13 0.14 0.11 0.07 0.06 0.06
0.00 0.00 0.00 0.00 0.01 0.02 0.02 0.02 0.01 0.02 0.02 0.01 0.01 0.01 0.01 0.02 0.03 0.06 0.07 0.09 0.08 0.08 0.09 0.09 0.06 0.07 0.06 0.06 0.06 0.06 0.04 0.03 0.03 0.03 0.04 0.05 0.07 0.09 0.10 0.10 0.10 0.13 0.13 0.12 0.11 0.08 0.07 0.06 0.06
0.00 0.00 0.00 0.00 0.00 0.01 0.02 0.02 0.02 0.03 0.02 0.02 0.02 0.01 0.02 0.03 0.05 0.10 0.08 0.09 0.07 0.07 0.07 0.07 0.06 0.05 0.05 0.05 0.05 0.05 0.04 0.03 0.03 0.03 0.05 0.07 0.09 0.11 0.13 0.12 0.11 0.13 0.13 0.13 0.11 0.10 0.09 0.09 0.10
0.00 0.00 0.00 0.00 0.00 0.01 0.02 0.02 0.02 0.02 0.01 0.01 0.02 0.03 0.03 0.03 0.04 0.05 0.06 0.07 0.06 0.05 0.05 0.06 0.05 0.05 0.04 0.03 0.05 0.05 0.04 0.04 0.03 0.05 0.09 0.12 0.12 0.12 0.13 0.14 0.15 0.15 0.14 0.17 0.15 0.12 0.09 0.11 0.10
0.00 0.00 0.00 0.00 0.00 0.00 0.01 0.02 0.01 0.01 0.02 0.02 0.02 0.04 0.06 0.05 0.04 0.03 0.04 0.05 0.04 0.04 0.06 0.05 0.05 0.04 0.04 0.03 0.03 0.04 0.05 0.06 0.04 0.04 0.06 0.08 0.09 0.10 0.11 0.12 0.16 0.21 0.20 0.17 0.15 0.12 0.11 0.10 0.09
0.00 0.00 0.00 0.00 0.00 0.00 0.01 0.02 0.02 0.01 0.01 0.02 0.03 0.06 0.11 0.08 0.05 0.04 0.03 0.03 0.03 0.04 0.06 0.07 0.07 0.05 0.03 0.03 0.03 0.03 0.04 0.06 0.05 0.05 0.05 0.05 0.06 0.07 0.09 0.13 0.22 0.24 0.20 0.15 0.14 0.12 0.11 0.10 0.09
0.00 0.00 0.00 0.00 0.00 0.00 0.01 0.01 0.03 0.02 0.02 0.03 0.04 0.07 0.14 0.11 0.07 0.04 0.02 0.03 0.04 0.05 0.07 0.07 0.06 0.04 0.03 0.03 0.03 0.03 0.05 0.07 0.07 0.05 0.06 0.05 0.06 0.06 0.09 0.16 0.21 0.18 0.14 0.11 0.11 0.11 0.10 0.08 0.08
0.00 0.00 0.00 0.00 0.00 0.01 0.00 0.01 0.01 0.01 0.02 0.02 0.03 0.07 0.14 0.13 0.10 0.06 0.04 0.05 0.07 0.07 0.07 0.06 0.05 0.04 0.03 0.04 0.04 0.07 0.09 0.10 0.08 0.07 0.06 0.05 0.06 0.06 0.08 0.11 0.13 0.12 0.09 0.09 0.09 0.08 0.07 0.07 0.08
0.00 0.00 0.00 0.00 0.01 0.01 0.00 0.00 0.00 0.00 0.01 0.02 0.04 0.08 0.11 0.09 0.08 0.07 0.06 0.06 0.07 0.05 0.05 0.05 0.04 0.03 0.04 0.07 0.09 0.15 0.15 0.12 0.09 0.08 0.06 0.05 0.06 0.05 0.06 0.07 0.09 0.09 0.08 0.08 0.09 0.08 0.08 0.07 0.07
0.00 0.00 0.00 0.00 0.00 0.00 0.00 0.00 0.00 0.00 0.01 0.04 0.08 0.10 0.10 0.07 0.05 0.06 0.05 0.04 0.05 0.04 0.03 0.04 0.03 0.02 0.02 0.03 0.06 0.10 0.09 0.07 0.04 0.04 0.05 0.04 0.04 0.04 0.03 0.06 0.07 0.06 0.06 0.08 0.08 0.07 0.06 0.04 0.06
0.00 0.00 0.00 0.00 0.00 0.00 0.00 0.01 0.01 0.01 0.02 0.04 0.06 0.07 0.07 0.05 0.04 0.05 0.05 0.03 0.03 0.04 0.04 0.03 0.03 0.02 0.01 0.02 0.03 0.03 0.03 0.03 0.01 0.02 0.04 0.04 0.03 0.03 0.03 0.04 0.05 0.06 0.05 0.05 0.05 0.05 0.03 0.03 0.05
0.00 0.00 0.00 0.00 0.00 0.00 0.01 0.01 0.01 0.01 0.01 0.02 0.02 0.03 0.04 0.03 0.03 0.02 0.02 0.02 0.02 0.02 0.02 0.01 0.01 0.01 0.01 0.01 0.01 0.01 0.01 0.01 0.00 0.01 0.03 0.05 0.05 0.04 0.03 0.04 0.03 0.04 0.05 0.05 0.05 0.05 0.04 0.03 0.04
0.00 0.00 0.00 0.00 0.00 0.00 0.00 0.00 0.00 0.00 0.01 0.01 0.01 0.01 0.02 0.02 0.01 0.01 0.01 0.01 0.02 0.02 0.02 0.01 0.01 0.01 0.01 0.01 0.01 0.00 0.01 0.01 0.01 0.03 0.04 0.05 0.05 0.04 0.04 0.04 0.04 0.04 0.04 0.05 0.06 0.07 0.06 0.06 0.05
0.00 0.00 0.00 0.00 0.00 0.00 0.00 0.00 0.00 0.01 0.00 0.00 0.00 0.00 0.01 0.01 0.01 0.02 0.02 0.01 0.02 0.02 0.02 0.01 0.01 0.01 0.01 0.01 0.02 0.02 0.01 0.02 0.02 0.04 0.05 0.04 0.04 0.06 0.06 0.05 0.06 0.05 0.04 0.05 0.08 0.06 0.07 0.09 0.09
0.00 0.00 0.00 0.00 0.00 0.00 0.00 0.01 0.00 0.00 0.00 0.01 0.00 0.00 0.00 0.01 0.02 0.03 0.02 0.01 0.01 0.01 0.01 0.01 0.02 0.02 0.02 0.02 0.02 0.02 0.02 0.02 0.03 0.05 0.05 0.06 0.06 0.09 0.08 0.06 0.06 0.07 0.06 0.08 0.09 0.08 0.09 0.09 0.09
0.00 0.00 0.00 0.00 0.00 0.00 0.00 0.01 0.00 0.00 0.00 0.01 0.01 0.01 0.01 0.01 0.01 0.02 0.02 0.01 0.01 0.02 0.02 0.02 0.03 0.04 0.03 0.03 0.04 0.03 0.03 0.05 0.07 0.08 0.07 0.07 0.08 0.08 0.07 0.07 0.07 0.08 0.07 0.10 0.12 0.12 0.13 0.14 0.11
0.00 0.00 0.00 0.01 0.01 0.00 0.00 0.01 0.00 0.00 0.00 0.01 0.01 0.01 0.01 0.01 0.01 0.02 0.02 0.04 0.02 0.03 0.04 0.04 0.06 0.07 0.05 0.05 0.06 0.05 0.06 0.08 0.08 0.08 0.09 0.09 0.07 0.06 0.05 0.07 0.08 0.06 0.07 0.10 0.07 0.10 0.13 0.13 0.10
0.00 0.00 0.00 0.00 0.01 0.00 0.00 0.00 0.00 0.00 0.00 0.01 0.01 0.02 0.01 0.01 0.01 0.01 0.02 0.02 0.03 0.04 0.05 0.06 0.07 0.08 0.08 0.07 0.06 0.06 0.06 0.08 0.08 0.08 0.08 0.08 0.07 0.05 0.04 0.06 0.07 0.06 0.09 0.09 0.09 0.11 0.12 0.12 0.12
0.00 0.00 0.00 0.00 0.00 0.00 0.00 0.00 0.00 0.00 0.01 0.01 0.01 0.01 0.01 0.01 0.01 0.01 0.02 0.01 0.02 0.03 0.04 0.06 0.07 0.07 0.06 0.05 0.05 0.07 0.08 0.08 0.09 0.08 0.06 0.05 0.05 0.05 0.06 0.05 0.08 0.09 0.10 0.09 0.07 0.08 0.09 0.10 0.10
0.00 0.00 0.00 0.01 0.01 0.00 0.00 0.00 0.00 0.00 0.00 0.00 0.00 0.00 0.01 0.01 0.02 0.02 0.02 0.02 0.02 0.02 0.03 0.04 0.06 0.05 0.05 0.05 0.05 0.06 0.06 0.05 0.06 0.07 0.07 0.05 0.05 0.05 0.05 0.07 0.08 0.09 0.10 0.10 0.09 0.09 0.09 0.09 0.11
0.00 0.00 0.00 0.00 0.01 0.01 0.01 0.02 0.01 0.00 0.00 0.00 0.00 0.00 0.00 0.01 0.02 0.01 0.01 0.01 0.02 0.02 0.01 0.01 0.03 0.04 0.04 0.04 0.04 0.04 0.05 0.05 0.06 0.06 0.06 0.07 0.05 0.06 0.07 0.07 0.07 0.09 0.09 0.10 0.11 0.10 0.10 0.10 0.10
0.00 0.00 0.00 0.00 0.01 0.01 0.01 0.01 0.01 0.01 0.00 0.00 0.00 0.00 0.00 0.00 0.00 0.01 0.01 0.01 0.01 0.01 0.02 0.02 0.02 0.02 0.02 0.03 0.03 0.04 0.06 0.08 0.08 0.06 0.05 0.06 0.05 0.06 0.07 0.07 0.08 0.11 0.10 0.11 0.10 0.09 0.10 0.12 0.12
0.00 0.00 0.00 0.00 0.01 0.01 0.01 0.00 0.01 0.00 0.00 0.00 0.00 0.00 0.00 0.00 0.00 0.01 0.01 0.00 0.00 0.01 0.01 0.01 0.01 0.02 0.02 0.02 0.03 0.05 0.07 0.09 0.08 0.05 0.06 0.06 0.05 0.05 0.07 0.08 0.10 0.11 0.12 0.12 0.13 0.12 0.11 0.11 0.12
0.00 0.00 0.00 0.01 0.01 0.01 0.00 0.00 0.01 0.00 0.00 0.00 0.00 0.00 0.00 0.01 0.00 0.00 0.00 0.00 0.01 0.01 0.01 0.00 0.01 0.01 0.01 0.02 0.03 0.05 0.06 0.07 0.08 0.08 0.08 0.08 0.07 0.05 0.05 0.06 0.09 0.11 0.11 0.10 0.12 0.13 0.12 0.12 0.12
0.00 0.00 0.01 0.01 0.01 0.00 0.00 0.00 0.00 0.00 0.00 0.00 0.00 0.00 0.00 0.00 0.00 0.00 0.00 0.00 0.00 0.01 0.00 0.01 0.01 0.01 0.01 0.02 0.03 0.03 0.04 0.04 0.06 0.08 0.09 0.09 0.07 0.07 0.07 0.06 0.08 0.09 0.08 0.07 0.09 0.10 0.10 0.10 0.10
0.00 0.00 0.00 0.00 0.01 0.00 0.00 0.00 0.00 0.00 0.00 0.00 0.00 0.00 0.00 0.00 0.00 0.00 0.00 0.00 0.00 0.01 0.01 0.01 0.01 0.01 0.01 0.02 0.03 0.02 0.02 0.03 0.05 0.06 0.06 0.06 0.06 0.07 0.07 0.05 0.06 0.08 0.06 0.05 0.07 0.06 0.06 0.05 0.06
0.00 0.00 0.00 0.00 0.00 0.00 0.00 0.00 0.00 0.00 0.00 0.00 0.00 0.00 0.00 0.00 0.00 0.00 0.00 0.00 0.01 0.02 0.02 0.01 0.01 0.02 0.02 0.03 0.03 0.02 0.02 0.03 0.05 0.05 0.04 0.03 0.05 0.06 0.06 0.05 0.04 0.04 0.05 0.05 0.07 0.05 0.05 0.05 0.06
0.00 0.00 0.00 0.00 0.00 0.00 0.00 0.00 0.00 0.00 0.00 0.00 0.00 0.00 0.00 0.00 0.00 0.00 0.00 0.01 0.01 0.03 0.02 0.02 0.02 0.02 0.02 0.02 0.03 0.03 0.02 0.03 0.05 0.04 0.03 0.04 0.05 0.07 0.07 0.07 0.05 0.06 0.06 0.04 0.05 0.05 0.05 0.05 0.06
0.00 0.00 0.00 0.00 0.00 0.00 0.00 0.00 0.00 0.00 0.00 0.00 0.00 0.00 0.00 0.00 0.00 0.00 0.00 0.01 0.01 0.01 0.01 0.01 0.01 0.01 0.01 0.01 0.02 0.02 0.02 0.02 0.03 0.03 0.04 0.05 0.06 0.08 0.08 0.09 0.09 0.08 0.07 0.05 0.04 0.04 0.05 0.05 0.06
0.00 0.00 0.00 0.00 0.00 0.00 0.00 0.00 0.00 0.00 0.00 0.00 0.00 0.00 0.00 0.00 0.00 0.00 0.00 0.00 0.01 0.01 0.01 0.01 0.01 0.02 0.03 0.03 0.04 0.04 0.03 0.03 0.04 0.05 0.05 0.06 0.06 0.06 0.07 0.06 0.06 0.05 0.05 0.05 0.05 0.05 0.06 0.06 0.05
MSLP
1003.21 1003.82 1004.85 1006.16 1007.61 1009.03 1010.27 1011.25 1011.94 1012.35 1012.57 1012.69 1012.80 1012.96 1013.19 1013.47 1013.76 1013.99 1014.14 1014.19 1014.14 1014.05 1013.97 1013.93 1013.96 1014.06 1014.20 1014.33 1014.43 1014.46 1014.42 1014.36 1014.30 1014.31 1014.42 1014.63 1014.93 1015.28 1015.62 1015.90 1016.09 1016.19 1016.23 1016.23 1016.25 1016.31 1016.42 1016.58 1016.75
1003.57 1004.48 1005.77 1007.27 1008.80 1010.19 1011.32 1012.11 1012.57 1012.76 1012.79 1012.78 1012.82 1012.97 1013.22 1013.55 1013.90 1014.18 1014.37 1014.45 1014.43 1014.37 1014.32 1014.32 1014.40 1014.55 1014.72 1014.89 1015.00 1015.03 1015.00 1014.93 1014.88 1014.88 1014.97 1015.16 1015.41 1015.70 1015.96 1016.17 1016.29 1016.35 1016.36 1016.37 1016.41 1016.50 1016.65 1016.84 1017.01
1004.15 1005.31 1006.78 1008.38 1009.92 1011.23 1012.20 1012.79 1013.04 1013.04 1012.94 1012.85 1012.87 1013.03 1013.33 1013.71 1014.09 1014.39 1014.57 1014.63 1014.60 1014.53 1014.49 1014.52 1014.65 1014.85 1015.08 1015.31 1015.47 1015.55 1015.55 1015.51 1015.46 1015.45 1015.52 1015.65 1015.84 1016.04 1016.22 1016.34 1016.41 1016.43 1016.43 1016.46 1016.55 1016.70 1016.89 1017.10 1017.28
1004.87 1006.20 1007.78 1009.40 1010.88 1012.06 1012.85 1013.25 1013.32 1013.20 1013.02 1012.90 1012.95 1013.16 1013.51 1013.93 1014.31 1014.59 1014.73 1014.74 1014.66 1014.55 1014.50 1014.55 1014.72 1014.99 1015.30 1015.60 1015.83 1015.98 1016.03 1016.02 1015.99 1015.98 1016.01 1016.09 1016.21 1016.33 1016.43 1016.49 1016.50 1016.50 1016.52 1016.59 1016.72 1016.92 1017.16 1017.38 1017.55
1005.65 1007.07 1008.67 1010.23 1011.59 1012.61 1013.23 1013.47 1013.43 1013.24 1013.05 1012.97 1013.08 1013.36 1013.77 1014.21 1014.58 1014.81 1014.88 1014.81 1014.66 1014.51 1014.45 1014.51 1014.72 1015.04 1015.42 1015.79 1016.09 1016.30 1016.40 1016.42 1016.41 1016.39 1016.41 1016.45 1016.52 1016.58 1016.62 1016.63 1016.63 1016.63 1016.67 1016.77 1016.95 1017.18 1017.43 1017.66 1017.80
1006.41 1007.84 1009.37 1010.82 1012.03 1012.88 1013.35 1013.49 1013.39 1013.20 1013.06 1013.08 1013.28 1013.65 1014.11 1014.57 1014.91 1015.09 1015.08 1014.93 1014.71 1014.52 1014.43 1014.49 1014.72 1015.08 1015.50 1015.91 1016.26 1016.50 1016.63 1016.67 1016.67 1016.66 1016.67 1016.69 1016.73 1016.77 1016.79 1016.79 1016.79 1016.80 1016.86 1016.99 1017.19 1017.43 1017.67 1017.87 1017.98
1007.09 1008.45 1009.86 1011.16 1012.20 1012.91 1013.28 1013.36 1013.27 1013.14 1013.11 1013.24 1013.56 1014.02 1014.54 1015.00 1015.32 1015.45 1015.38 1015.16 1014.89 1014.67 1014.56 1014.62 1014.85 1015.21 1015.63 1016.03 1016.36 1016.59 1016.71 1016.76 1016.75 1016.75 1016.76 1016.80 1016.85 1016.90 1016.93 1016.94 1016.96 1016.99 1017.07 1017.20 1017.39 1017.61 1017.81 1017.96 1018.01
1007.67 1008.92 1010.19 1011.32 1012.21 1012.79 1013.09 1013.17 1013.14 1013.12 1013.22 1013.48 1013.92 1014.46 1015.02 1015.49 1015.79 1015.87 1015.77 1015.52 1015.24 1015.00 1014.89 1014.94 1015.15 1015.47 1015.84 1016.18 1016.44 1016.61 1016.68 1016.69 1016.68 1016.68 1016.71 1016.77 1016.85 1016.94 1017.01 1017.06 1017.10 1017.14 1017.22 1017.34 1017.50 1017.66 1017.81 1017.89 1017.88
1008.19 1009.31 1010.42 1011.39 1012.14 1012.64 1012.91 1013.02 1013.08 1013.18 1013.40 1013.79 1014.32 1014.92 1015.50 1015.97 1016.25 1016.33 1016.21 1015.98 1015.71 1015.49 1015.39 1015.43 1015.61 1015.86 1016.14 1016.37 1016.52 1016.59 1016.58 1016.53 1016.49 1016.48 1016.54 1016.64 1016.77 1016.90 1017.01 1017.10 1017.16 1017.21 1017.27 1017.36 1017.46 1017.56 1017.64 1017.65 1017.60
1008.70 1009.69 1010.65 1011.48 1012.12 1012.56 1012.83 1012.99 1013.13 1013.34 1013.67 1014.14 1014.72 1015.34 1015.92 1016.37 1016.65 1016.72 1016.63 1016.44 1016.23 1016.06 1015.99 1016.03 1016.16 1016.33 1016.49 1016.59 1016.61 1016.55 1016.44 1016.33 1016.25 1016.24 1016.31 1016.44 1016.62 1016.79 1016.94 1017.05 1017.12 1017.17 1017.20 1017.24 1017.28 1017.32 1017.33 1017.30 1017.20
1009.25 1010.13 1010.96 1011.67 1012.23 1012.64 1012.91 1013.12 1013.33 1013.61 1014.00 1014.50 1015.08 1015.67 1016.21 1016.63 1016.88 1016.96 1016.92 1016.79 1016.66 1016.57 1016.54 1016.59 1016.69 1016.79 1016.84 1016.81 1016.70 1016.52 1016.32 1016.14 1016.03 1016.02 1016.10 1016.26 1016.46 1016.66 1016.83 1016.94 1017.00 1017.02 1017.02 1017.01 1017.00 1016.99 1016.95 1016.89 1016.79
1009.88 1010.67 1011.39 1012.02 1012.51 1012.89 1013.17 1013.41 1013.66 1013.97 1014.37 1014.84 1015.36 1015.87 1016.33 1016.67 1016.89 1016.98 1016.98 1016.94 1016.89 1016.88 1016.92 1017.00 1017.08 1017.13 1017.10 1016.98 1016.77 1016.52 1016.25 1016.03 1015.91 1015.89 1015.98 1016.15 1016.35 1016.55 1016.71 1016.80 1016.83 1016.82 1016.77 1016.72 1016.68 1016.63 1016.59 1016.53 1016.45
1010.58 1011.30 1011.95 1012.50 1012.95 1013.31 1013.59 1013.85 1014.11 1014.40 1014.75 1015.14 1015.55 1015.94 1016.27 1016.52 1016.68 1016.76 1016.79 1016.81 1016.85 1016.93 1017.03 1017.15 1017.25 1017.28 1017.22 1017.06 1016.82 1016.53 1016.26 1016.04 1015.92 1015.91 1016.00 1016.16 1016.34 1016.51 1016.63 1016.68 1016.66 1016.60 1016.52 1016.44 1016.38 1016.33 1016.29 1016.26 1016.21
1011.31 1011.98 1012.57 1013.08 1013.50 1013.84 1014.13 1014.38 1014.62 1014.87 1015.14 1015.41 1015.68 1015.91 1016.10 1016.23 1016.30 1016.35 1016.38 1016.44 1016.54 1016.68 1016.85 1017.02 1017.15 1017.21 1017.17 1017.04 1016.83 1016.58 1016.35 1016.18 1016.09 1016.10 1016.19 1016.32 1016.47 1016.58 1016.63 1016.62 1016.54 1016.44 1016.32 1016.22 1016.15 1016.11 1016.10 1016.11 1016.11
1012.01 1012.63 1013.19 1013.67 1014.08 1014.42 1014.71 1014.96 1015.18 1015.37 1015.55 1015.69 1015.80 1015.88 1015.90 1015.90 1015.87 1015.85 1015.86 1015.92 1016.05 1016.23 1016.45 1016.66 1016.85 1016.96 1016.99 1016.94 1016.82 1016.67 1016.54 1016.45 1016.42 1016.45 1016.54 1016.64 1016.72 1016.76 1016.73 1016.64 1016.50 1016.34 1016.19 1016.08 1016.01 1015.98 1016.00 1016.03 1016.07
1012.60 1013.19 1013.73 1014.20 1014.62 1014.99 1015.30 1015.55 1015.76 1015.91 1016.00 1016.03 1016.00 1015.92 1015.80 1015.66 1015.52 1015.42 1015.37 1015.41 1015.53 1015.71 1015.95 1016.20 1016.43 1016.62 1016.74 1016.81 1016.82 1016.81 1016.80 1016.82 1016.87 1016.94 1017.02 1017.08 1017.09 1017.05 1016.93 1016.76 1016.55 1016.34 1016.15 1016.02 1015.94 1015.91 1015.94 1015.98 1016.03
1013.05 1013.62 1014.15 1014.65 1015.10 1015.51 1015.86 1016.15 1016.36 1016.48 1016.51 1016.45 1016.31 1016.11 1015.87 1015.61 1015.37 1015.18 1015.07 1015.05 1015.13 1015.29 1015.52 1015.78 1016.05 1016.31 1016.53 1016.72 1016.88 1017.02 1017.15 1017.28 1017.40 1017.51 1017.58 1017.59 1017.54 1017.41 1017.21 1016.96 1016.69 1016.42 1016.19 1016.02 1015.91 1015.87 1015.87 1015.90 1015.93
1013.36 1013.92 1014.46 1015.00 1015.51 1015.98 1016.40 1016.74 1016.97 1017.10 1017.10 1016.99 1016.78 1016.49 1016.16 1015.82 1015.50 1015.24 1015.06 1014.98 1014.99 1015.11 1015.30 1015.55 1015.84 1016.14 1016.45 1016.75 1017.04 1017.31 1017.56 1017.79 1017.98 1018.11 1018.17 1018.15 1018.03 1017.83 1017.56 1017.24 1016.90 1016.59 1016.31 1016.09 1015.93 1015.83 1015.77 1015.74 1015.73
1013.54 1014.11 1014.70 1015.29 1015.88 1016.44 1016.93 1017.33 1017.61 1017.75 1017.75 1017.62 1017.37 1017.05 1016.67 1016.28 1015.92 1015.61 1015.38 1015.24 1015.20 1015.26 1015.39 1015.61 1015.89 1016.21 1016.56 1016.94 1017.32 1017.69 1018.04 1018.34 1018.58 1018.72 1018.77 1018.71 1018.54 1018.28 1017.95 1017.58 1017.20 1016.83 1016.50 1016.22 1015.99 1015.81 1015.67 1015.55 1015.46
1013.66 1014.26 1014.90 1015.57 1016.25 1016.89 1017.47 1017.93 1018.25 1018.42 1018.43 1018.30 1018.05 1017.72 1017.34 1016.95 1016.58 1016.27 1016.02 1015.85 1015.76 1015.76 1015.84 1016.00 1016.25 1016.55 1016.91 1017.32 1017.74 1018.17 1018.57 1018.91 1019.16 1019.31 1019.34 1019.25 1019.04 1018.75 1018.38 1017.98 1017.57 1017.17 1016.79 1016.45 1016.14 1015.86 1015.61 1015.39 1015.21
1013.77 1014.41 1015.12 1015.88 1016.64 1017.37 1018.00 1018.52 1018.87 1019.06 1019.08 1018.96 1018.72 1018.42 1018.07 1017.73 1017.40 1017.12 1016.89 1016.73 1016.62 1016.58 1016.61 1016.72 1016.90 1017.16 1017.49 1017.88 1018.30 1018.73 1019.13 1019.47 1019.72 1019.86 1019.87 1019.76 1019.54 1019.23 1018.86 1018.45 1018.02 1017.60 1017.19 1016.79 1016.41 1016.04 1015.69 1015.37 1015.10
1013.90 1014.60 1015.38 1016.22 1017.05 1017.84 1018.52 1019.06 1019.43 1019.61 1019.64 1019.53 1019.32 1019.06 1018.78 1018.52 1018.27 1018.07 1017.91 1017.78 1017.69 1017.63 1017.62 1017.67 1017.79 1017.98 1018.25 1018.58 1018.95 1019.35 1019.72 1020.03 1020.26 1020.38 1020.38 1020.26 1020.04 1019.73 1019.37 1018.98 1018.56 1018.14 1017.72 1017.29 1016.85 1016.40 1015.97 1015.57 1015.23
1014.04 1014.80 1015.66 1016.56 1017.45 1018.27 1018.97 1019.50 1019.86 1020.03 1020.05 1019.96 1019.79 1019.59 1019.40 1019.24 1019.11 1019.02 1018.95 1018.90 1018.85 1018.80 1018.77 1018.77 1018.82 1018.94 1019.12 1019.37 1019.67 1020.00 1020.32 1020.59 1020.78 1020.88 1020.86 1020.74 1020.53 1020.25 1019.92 1019.56 1019.18 1018.78 1018.37 1017.93 1017.47 1016.99 1016.50 1016.05 1015.66
1014.18 1014.99 1015.90 1016.84 1017.75 1018.58 1019.28 1019.80 1020.13 1020.28 1020.30 1020.22 1020.11 1019.99 1019.90 1019.86 1019.87 1019.91 1019.96 1019.99 1020.00 1019.99 1019.95 1019.92 1019.91 1019.94 1020.04 1020.20 1020.42 1020.67 1020.92 1021.14 1021.29 1021.37 1021.34 1021.23 1021.04 1020.79 1020.50 1020.18 1019.85 1019.50 1019.12 1018.70 1018.25 1017.77 1017.28 1016.81 1016.40
1014.26 1015.10 1016.03 1016.99 1017.91 1018.73 1019.40 1019.89 1020.20 1020.35 1020.38 1020.34 1020.29 1020.26 1020.29 1020.38 1020.53 1020.71 1020.88 1021.01 1021.10 1021.12 1021.09 1021.02 1020.96 1020.92 1020.94 1021.02 1021.15 1021.33 1021.52 1021.69 1021.81 1021.86 1021.84 1021.73 1021.56 1021.35 1021.10 1020.83 1020.55 1020.25 1019.92 1019.56 1019.16 1018.71 1018.25 1017.79 1017.39
1014.23 1015.08 1016.00 1016.95 1017.85 1018.64 1019.29 1019.77 1020.09 1020.25 1020.32 1020.34 1020.38 1020.46 1020.61 1020.83 1021.11 1021.41 1021.70 1021.92 1022.07 1022.13 1022.11 1022.03 1021.93 1021.84 1021.79 1021.80 1021.87 1021.98 1022.12 1022.25 1022.34 1022.38 1022.36 1022.26 1022.11 1021.92 1021.71 1021.48 1021.25 1021.01 1020.75 1020.46 1020.12 1019.74 1019.33 1018.92 1018.54
1014.06 1014.88 1015.78 1016.69 1017.55 1018.32 1018.96 1019.45 1019.79 1020.01 1020.15 1020.27 1020.41 1020.61 1020.89 1021.23 1021.63 1022.04 1022.41 1022.71 1022.91 1023.00 1022.99 1022.91 1022.78 1022.66 1022.56 1022.53 1022.55 1022.62 1022.73 1022.83 1022.91 1022.94 1022.92 1022.83 1022.70 1022.53 1022.34 1022.15 1021.96 1021.77 1021.58 1021.35 1021.09 1020.79 1020.46 1020.10 1019.76
1013.76 1014.53 1015.37 1016.22 1017.05 1017.80 1018.44 1018.96 1019.36 1019.66 1019.91 1020.15 1020.42 1020.75 1021.14 1021.60 1022.09 1022.58 1023.01 1023.36 1023.60 1023.71 1023.71 1023.63 1023.50 1023.37 1023.26 1023.20 1023.20 1023.26 1023.35 1023.45 1023.52 1023.56 1023.54 1023.46 1023.33 1023.18 1023.01 1022.84 1022.68 1022.53 1022.39 1022.23 1022.05 1021.83 1021.57 1021.28 1020.97
1013.38 1014.07 1014.83 1015.62 1016.40 1017.13 1017.78 1018.35 1018.84 1019.25 1019.63 1020.01 1020.42 1020.87 1021.37 1021.92 1022.48 1023.01 1023.49 1023.86 1024.12 1024.25 1024.27 1024.21 1024.09 1023.97 1023.87 1023.82 1023.83 1023.89 1023.99 1024.09 1024.18 1024.22 1024.22 1024.15 1024.04 1023.89 1023.73 1023.57 1023.44 1023.31 1023.21 1023.10 1022.97 1022.82 1022.63 1022.39 1022.13
1012.99 1013.59 1014.25 1014.96 1015.69 1016.40 1017.07 1017.70 1018.28 1018.82 1019.34 1019.86 1020.39 1020.96 1021.56 1022.17 1022.77 1023.34 1023.83 1024.22 1024.49 1024.64 1024.69 1024.66 1024.58 1024.49 1024.43 1024.41 1024.45 1024.53 1024.65 1024.77 1024.88 1024.94 1024.95 1024.90 1024.80 1024.67 1024.52 1024.37 1024.24 1024.13 1024.05 1023.97 1023.89 1023.78 1023.64 1023.46 1023.23
Thickness
5853 5858 5858 5852 5838 5818 5798 5800 5807 5803 5801 5806 5808 5805 5797 5790 5786 5774 5791 5799 5798 5797 5793 5788 5785 5784 5783 5782 5781 5780 5779 5778 5777 5776 5775 5773 5772 5770 5768 5767 5767 5766 5763 5762 5760 5759 5758 5756 5755
5862 5861 5856 5850 5826 5798 5791 5803 5801 5801 5805 5809 5808 5805 5797 5789 5793 5791 5794 5797 5798 5797 5794 5789 5784 5783 5782 5780 5779 5778 5778 5776 5775 5774 5773 5772 5770 5769 5767 5766 5765 5764 5762 5760 5758 5757 5755 5754 5753
5863 5862 5853 5841 5816 5799 5793 5803 5803 5806 5811 5809 5803 5802 5794 5786 5792 5794 5797 5799 5799 5797 5793 5787 5783 5782 5780 5779 5778 5777 5776 5775 5773 5772 5771 5770 5768 5767 5765 5764 5763 5762 5760 5758 5757 5755 5754 5753 5751
5863 5859 5852 5831 5807 5807 5807 5808 5810 5807 5808 5810 5805 5794 5793 5794 5797 5798 5799 5800 5799 5797 5794 5786 5782 5781 5779 5778 5776 5775 5774 5773 5771 5770 5769 5768 5766 5765 5764 5762 5761 5760 5758 5757 5755 5754 5753 5751 5750
5867 5855 5834 5816 5808 5811 5816 5816 5815 5809 5804 5805 5804 5790 5785 5794 5801 5800 5799 5799 5798 5796 5793 5787 5781 5780 5778 5776 5775 5774 5772 5771 5770 5768 5767 5766 5765 5763 5762 5761 5759 5758 5757 5755 5754 5753 5751 5750 5748
5857 5851 5826 5808 5806 5812 5818 5820 5816 5808 5804 5804 5801 5791 5783 5793 5796 5797 5798 5797 5797 5795 5792 5786 5780 5778 5777 5775 5774 5772 5771 5770 5768 5767 5766 5765 5763 5762 5760 5759 5758 5757 5755 5754 5753 5751 5750 5749 5747
5849 5841 5822 5816 5809 5809 5815 5823 5815 5809 5802 5803 5805 5791 5784 5789 5794 5796 5795 5795 5795 5794 5792 5787 5784 5779 5776 5774 5772 5771 5769 5768 5766 5765 5764 5763 5762 5761 5759 5758 5756 5755 5754 5753 5752 5750 5749 5748 5746
5858 5845 5825 5819 5813 5808 5819 5821 5819 5813 5805 5811 5811 5794 5785 5789 5795 5795 5793 5792 5791 5791 5789 5787 5785 5783 5781 5776 5772 5770 5768 5766 5765 5763 5762 5761 5760 5759 5758 5757 5755 5754 5753 5752 5751 5749 5748 5747 5746
5859 5839 5820 5820 5816 5814 5823 5818 5818 5821 5812 5809 5810 5807 5802 5797 5795 5791 5787 5786 5785 5785 5786 5786 5785 5783 5782 5779 5773 5771 5768 5766 5765 5763 5761 5762 5764 5763 5760 5757 5754 5753 5752 5751 5750 5748 5747 5747 5746
5853 5829 5823 5831 5832 5825 5823 5820 5817 5813 5804 5801 5801 5801 5800 5795 5792 5787 5784 5783 5783 5782 5783 5784 5784 5782 5782 5780 5775 5773 5772 5768 5767 5765 5764 5763 5762 5761 5760 5755 5754 5753 5752 5750 5749 5748 5748 5748 5749
5845 5832 5833 5835 5837 5834 5825 5822 5824 5813 5802 5803 5799 5795 5795 5793 5790 5787 5787 5786 5785 5784 5783 5783 5782 5780 5780 5778 5776 5774 5772 5769 5768 5765 5763 5762 5762 5762 5761 5759 5756 5754 5753 5754 5751 5752 5753 5752 5751
5839 5837 5837 5837 5838 5833 5827 5824 5819 5815 5811 5816 5811 5804 5797 5792 5789 5788 5787 5787 5787 5785 5783 5783 5780 5778 5777 5777 5776 5774 5773 5771 5769 5765 5763 5763 5762 5761 5761 5759 5759 5757 5756 5754 5754 5752 5752 5752 5751
5834 5833 5837 5839 5837 5835 5829 5822 5817 5813 5818 5818 5811 5803 5798 5795 5793 5792 5791 5789 5787 5784 5783 5782 5780 5777 5774 5773 5774 5774 5772 5771 5768 5765 5763 5762 5762 5761 5760 5758 5756 5757 5756 5755 5753 5752 5751 5751 5751
5834 5834 5834 5836 5834 5832 5824 5820 5817 5811 5818 5812 5806 5801 5800 5797 5795 5793 5790 5787 5786 5785 5784 5783 5780 5777 5774 5772 5771 5771 5771 5767 5768 5765 5763 5761 5761 5760 5758 5757 5756 5756 5756 5755 5753 5752 5751 5750 5751
5838 5829 5827 5829 5830 5829 5825 5809 5810 5815 5816 5808 5804 5802 5799 5798 5797 5794 5792 5790 5789 5787 5786 5782 5780 5778 5774 5772 5772 5771 5770 5769 5767 5765 5763 5760 5760 5758 5758 5758 5757 5756 5755 5753 5752 5752 5751 5751 5751
5831 5823 5813 5819 5827 5827 5820 5799 5811 5818 5813 5806 5804 5802 5799 5798 5798 5797 5796 5793 5792 5790 5786 5784 5784 5780 5776 5773 5771 5772 5770 5768 5766 5764 5763 5761 5759 5758 5757 5758 5758 5755 5754 5754 5752 5752 5750 5750 5750
5817 5812 5810 5812 5824 5824 5818 5806 5813 5818 5813 5805 5804 5803 5801 5800 5799 5799 5798 5796 5794 5791 5787 5783 5783 5780 5778 5775 5772 5770 5768 5767 5766 5765 5764 5761 5759 5758 5757 5757 5756 5755 5755 5754 5754 5753 5751 5748 5748
5809 5813 5810 5809 5818 5819 5814 5812 5813 5817 5814 5809 5807 5806 5803 5801 5801 5803 5801 5799 5796 5793 5789 5785 5782 5780 5778 5775 5772 5770 5769 5767 5766 5765 5763 5761 5759 5758 5758 5758 5756 5755 5754 5752 5751 5749 5749 5748 5748
5820 5814 5808 5811 5819 5815 5812 5811 5813 5815 5814 5811 5809 5807 5805 5804 5808 5807 5803 5801 5797 5793 5789 5786 5783 5780 5777 5775 5773 5770 5768 5768 5767 5766 5764 5762 5760 5759 5757 5758 5756 5754 5753 5751 5751 5749 5748 5748 5749
5813 5807 5805 5807 5815 5813 5810 5810 5816 5816 5814 5815 5813 5810 5809 5807 5806 5805 5804 5801 5798 5794 5790 5788 5784 5782 5779 5777 5774 5773 5771 5769 5769 5767 5765 5763 5761 5759 5759 5756 5755 5754 5752 5750 5749 5748 5748 5749 5749
5806 5807 5806 5803 5807 5813 5809 5802 5809 5815 5817 5817 5817 5816 5814 5811 5808 5805 5803 5801 5799 5796 5793 5791 5787 5784 5781 5779 5776 5773 5769 5767 5768 5766 5766 5765 5762 5760 5758 5756 5755 5753 5753 5751 5748 5748 5747 5746 5748
5797 5811 5809 5803 5799 5799 5803 5791 5805 5812 5810 5812 5814 5815 5815 5815 5813 5809 5805 5801 5800 5799 5797 5793 5789 5786 5783 5780 5777 5773 5769 5766 5767 5768 5768 5766 5763 5761 5759 5757 5755 5753 5753 5750 5750 5751 5749 5746 5745
5805 5811 5807 5804 5800 5798 5800 5795 5805 5813 5805 5810 5815 5817 5818 5818 5815 5812 5809 5806 5804 5803 5799 5795 5790 5786 5784 5781 5778 5773 5772 5771 5771 5770 5767 5765 5765 5762 5760 5758 5756 5753 5752 5751 5750 5749 5749 5749 5746
5804 5800 5797 5799 5800 5779 5792 5790 5794 5810 5809 5814 5818 5819 5820 5820 5819 5816 5813 5810 5806 5805 5801 5798 5792 5787 5784 5781 5779 5774 5773 5771 5769 5766 5765 5764 5765 5763 5761 5759 5757 5754 5753 5752 5750 5749 5749 5748 5747
5796 5786 5772 5769 5771 5778 5795 5790 5797 5813 5818 5817 5818 5819 5821 5822 5820 5817 5813 5809 5806 5803 5801 5798 5793 5787 5785 5782 5779 5776 5773 5771 5767 5765 5764 5763 5764 5762 5760 5761 5758 5756 5753 5751 5750 5749 5748 5748 5745
5791 5792 5775 5764 5767 5782 5784 5786 5804 5817 5820 5821 5821 5823 5822 5822 5821 5819 5816 5813 5808 5805 5802 5798 5794 5789 5786 5782 5779 5778 5775 5772 5771 5768 5766 5764 5763 5763 5762 5759 5757 5755 5753 5752 5750 5749 5748 5746 5745
5784 5788 5802 5787 5782 5778 5786 5792 5804 5814 5813 5814 5816 5817 5818 5820 5820 5819 5818 5815 5811 5807 5804 5800 5795 5790 5787 5784 5780 5777 5774 5772 5770 5768 5765 5764 5762 5763 5761 5758 5756 5755 5753 5751 5748 5748 5745 5745 5743
5796 5794 5785 5777 5761 5762 5775 5781 5792 5798 5802 5807 5810 5812 5815 5818 5819 5819 5818 5816 5814 5810 5806 5802 5797 5791 5787 5784 5781 5779 5775 5772 5770 5768 5765 5763 5761 5760 5758 5756 5755 5752 5750 5748 5747 5745 5744 5742 5741
5778 5780 5784 5783 5781 5769 5765 5779 5804 5802 5803 5804 5809 5812 5814 5815 5817 5817 5816 5815 5813 5810 5806 5800 5795 5790 5786 5783 5780 5778 5775 5772 5769 5766 5764 5762 5759 5757 5755 5753 5752 5750 5747 5746 5744 5743 5741 5739 5738
5786 5784 5781 5769 5764 5773 5775 5781 5804 5805 5806 5806 5807 5809 5812 5814 5816 5816 5814 5812 5810 5807 5804 5799 5795 5789 5786 5782 5779 5776 5773 5770 5768 5765 5763 5760 5757 5755 5753 5751 5748 5746 5745 5743 5742 5740 5739 5737 5735